Regional Weather Roundup
Issued by NWS

Home | Current Version | Previous Version | Graphics & Text | Print | Product List | Glossary Off
Versions: 1 2 3 4 5 6 7 8 9 10 11 12 13 14 15 16 17 18 19 20 21 22 23 24 25 26 27 28 29 30 31 32 33 34 35 36 37 38 39 40 41 42 43 44 45 46 47 48 49 50

000
ASUS43 KFSD 070902
RWRSD

WEATHER ROUNDUP FOR SOUTH DAKOTA
NATIONAL WEATHER SERVICE SIOUX FALLS SD
400 AM CDT TUE JUL 07 2015

NOTE: "FAIR" INDICATES FEW OR NO CLOUDS BELOW 12,000 FEET WITH NO
SIGNIFICANT WEATHER AND/OR OBSTRUCTIONS TO VISIBILITY.


SDZ001>005-009-010-012>017-071000-
NORTHWEST AND NORTH CENTRAL SOUTH DAKOTA

CITY           SKY/WX    TMP DP  RH WIND       PRES   REMARKS
BUFFALO          N/A     54  50  86 E7        30.12F
FAITH            N/A     56  51  84 SE12      30.18S
MOBRIDGE       CLEAR     57  52  83 E8        30.17S
$$

SDZ012>016-024>037-041>051-057-063-072>074-071000-
SOUTHWEST AND SOUTH CENTRAL SOUTH DAKOTA

CITY           SKY/WX    TMP DP  RH WIND       PRES   REMARKS
RAPID CTY ARPT PTCLDY    58  55  90 SE6       30.18F
PIERRE         CLEAR     55  52  89 E7        30.16S FOG
CUSTER         CLOUDY    53  49  86 S3        30.26F
ELLSWORTH AFB  PTCLDY    59  57  93 SE7       30.17F
PHILIP         MOCLDY    58  56  93 E5        30.17S
PINE RIDGE     MOCLDY    62  53  72 S9        30.20F
WINNER         FAIR      58  53  84 CALM      30.18S
$$

SDZ004>011-016>023-039-040-071000-
NORTHEAST SOUTH DAKOTA

CITY           SKY/WX    TMP DP  RH WIND       PRES   REMARKS
ABERDEEN       CLEAR     51  49  92 NE3       30.20R
WATERTOWN      CLEAR     46  45  96 NE3       30.18R
BROOKINGS      CLEAR     50  45  81 N6        30.18R
SISSETON         N/A     46  44  93 NW7       30.18R
$$

SDZ017-020-022-023-036>040-048>070-071000-
SOUTHEAST SOUTH DAKOTA

CITY           SKY/WX    TMP DP  RH WIND       PRES   REMARKS
SIOUX FALLS    CLEAR     52  49  89 N3        30.16R
HURON          CLEAR     52  52 100 W3        30.17R FOG
MITCHELL       CLEAR     55  54  96 NW5       30.18R FOG
YANKTON        CLEAR     54  48  82 NW6       30.15S
$$

ABBREVIATIONS USED IN REMARKS
   TC - TEMPERATURE IN CELSIUS
  WCI - WIND CHILL INDEX
   HX - HEAT INDEX
  VSB - VISIBILITY




USA.gov is the U.S. government's official web portal to all federal, state and local government web resources and services.